Terminal Aerodrome Forecast
Issued by NWS

Home | Current Version | Previous Version | Text Only | Print | Product List | Glossary On
Versions: 1 2 3 4 5 6 7 8 9 10 11 12 13 14 15 16 17 18 19
000
FTUS43 KLSX 202000 AAC
TAFCPS
TAF AMD
KCPS 202053Z 2021/2118 03009KT 5SM -RA BR BKN014 OVC030
      TEMPO 2021/2022 2SM RA BR BKN008
     FM202200 02010KT P6SM OVC014
     FM210200 35005KT P6SM OVC007
     FM211400 33008KT P6SM BKN020=

USA.gov is the U.S. government's official web portal to all federal, state and local government web resources and services.